Location: *
(34.6903°N, 135.5184°E)
Time: 11:20:40
(UTC+00:00)

Cosmos 2315 Rocket - Pass Details

Date: 22 September 2019
Orbit: 966 x 1002 km, 82.9° (Epoch: 21 October)

Event Time Altitude Azimuth Distance (km) Brightness Sun altitude
Rises 20:00:03 0° 351° (N) 3,662 7.0 -10.3°
Reaches altitude 10° 20:02:34 10° 349° (N) 2,713 6.3 -9.8°
Maximum altitude 20:08:44 71° 267° (W) 1,025 4.0 -8.5°
Drops below altitude 10° 20:14:55 10° 184° (S) 2,716 6.3 -7.2°
Sets 20:17:26 0° 182° (S) 3,666 6.9 -6.7°
